Date,TemperatureHighF,TemperatureAvgF,TemperatureLowF,DewpointHighF,DewpointAvgF,DewpointLowF,HumidityHigh,HumidityAvg,HumidityLow,PressureMaxIn,PressureMinIn,WindSpeedMaxMPH,WindSpeedAvgMPH,GustSpeedMaxMPH,PrecipitationSumIn
2013-3-1,30,28,27,28,27,25,95,94,92,29.86,29.80,6,2,14,0.07
2013-3-2,27,24,20,26,22,17,95,92,88,29.94,29.79,1,0,12,0.00
2013-3-3,22,20,17,20,17,15,92,89,83,30.00,29.92,8,5,21,0.00
2013-3-4,41,29,18,23,18,14,87,66,42,30.11,29.92,7,2,16,0.09
2013-3-5,45,39,29,44,33,22,96,80,52,29.93,29.43,15,7,35,0.81
2013-3-6,27,24,22,25,22,20,94,92,86,30.14,29.59,12,8,28,0.00
2013-3-7,27,25,24,25,23,22,94,93,90,30.27,30.12,4,2,13,0.00
2013-3-8,36,29,24,29,25,22,94,85,73,30.32,30.23,7,2,15,0.01
2013-3-9,59,45,29,34,27,24,81,53,30,30.26,30.01,8,2,20,0.00
2013-3-10,65,56,49,39,33,28,48,43,37,30.01,29.85,19,10,36,0.00
2013-3-11,56,51,47,47,42,32,95,72,46,29.86,29.61,19,14,41,0.36
2013-3-12,47,38,32,46,34,28,96,86,69,29.94,29.65,9,4,19,0.19
2013-3-13,36,29,23,29,23,16,91,76,65,30.17,29.91,13,8,33,0.01
2013-3-14,38,27,20,19,16,15,87,65,44,30.27,30.13,11,6,27,0.00
2013-3-15,56,41,29,40,28,16,69,59,48,30.15,29.77,11,5,26,0.00
2013-3-16,66,57,50,52,47,40,83,69,53,29.76,29.52,12,6,31,0.10
2013-3-17,57,44,41,49,42,39,97,93,74,29.88,29.70,5,1,16,0.12
2013-3-18,51,45,41,46,42,39,96,90,78,29.83,29.63,19,9,40,0.89
2013-3-19,47,41,33,46,27,10,96,63,29,29.99,29.62,15,9,35,0.09
2013-3-20,43,34,27,27,16,8,92,49,30,29.99,29.74,15,7,33,0.00
2013-3-21,26,20,15,23,12,9,88,70,58,29.95,29.75,11,7,23,0.00
2013-3-22,41,27,16,19,14,10,81,59,39,30.01,29.89,5,1,20,0.00
2013-3-23,46,38,33,36,25,15,70,59,46,29.95,29.77,1,0,6,0.00
2013-3-24,44,40,38,41,36,30,94,86,65,29.75,29.23,15,6,31,0.88
2013-3-25,38,28,25,36,23,-100,93,88,73,29.80,29.34,14,9,33,0.08
2013-3-26,29,26,25,26,25,23,94,92,84,30.13,29.81,10,7,23,0.00
2013-3-27,32,28,25,25,23,20,94,79,65,30.21,30.12,9,6,21,0.01
2013-3-28,41,33,27,28,23,20,78,67,52,30.24,30.16,8,4,18,0.00
2013-3-29,50,39,33,33,26,22,89,60,37,30.22,30.08,7,3,19,0.00
2013-3-30,53,43,33,38,35,32,94,75,51,30.14,29.90,5,2,20,0.00
2013-3-31,52,47,42,47,43,38,96,87,68,29.89,29.69,15,5,26,0.26